Home > Weather > Madrid > Past weeks

Flag for Spain Weather for the Past 2 Weeks in Madrid, Spain

Now
64 °F

Passing clouds.


Feels Like: 64 °F
Forecast: 37 / 72 °F
Wind: 6 mph from North

Location: Madrid / Cuatro Vientos

Current Time: May 1, 2016 at 8:09:00 PM

Latest Report: May 1, 2016 at 7:30 PM


Visibility: N/A

Pressure: 30.24 "Hg (27.99 "Hg at 658m altitude)

Humidity: 24%

Dew Point: 27 °F

Location of MadridLocation

Historic Weather in Madrid — Graph

°F

Madrid Temperature Yesterday

Maximum temperature yesterday: 68 °F (at 4:30 PM)
Minimum temperature yesterday: 45 °F (at 7:30 AM)
Average temperature yesterday: 60 °F

High & Low Weather Summary for the Past Weeks

 TemperatureHumidityPressure
High72 °F (Apr 18, 6:30 PM)100% (Apr 17, 7:00 AM)30.33 "Hg (Apr 17, 7:00 AM)
Low41 °F (May 1, 7:30 AM)19% (May 1, 7:00 PM)29.80 "Hg (Apr 27, 4:00 PM)
Average58 °F60%30.02 "Hg
* Reported Apr 16 7:00 PM — May 1 7:00 PM, Madrid, Weather by CustomWeather, © 2016

Note: Actual official high and low records may vary slightly from our data, if they occured in-between our weather recording intervals... More about our weather records

Advertising

Madrid Weather History for the Previous 24 Hours

Scroll right to see more
 ConditionsComfort  
Time TempWeatherWind HumidityBarometerVisibility
7:00 PM
Sun, May 1
66 °FSunny.3 mph19%30.24 "Hg10 mi
6:30 PM66 °FSunny.3 mph22%30.24 "Hg10 mi
6:00 PM66 °FSunny.2 mph22%30.24 "Hg10 mi
5:30 PM66 °FSunny.3 mph21%30.27 "Hg10 mi
5:00 PM64 °FSunny.6 mph22%30.27 "Hg10 mi
4:30 PM64 °FSunny.3 mph26%30.27 "Hg10 mi
4:00 PM63 °FSunny.3 mph22%30.27 "Hg10 mi
3:30 PM63 °FSunny.5 mph22%30.30 "Hg10 mi
3:00 PM61 °FSunny.3 mph31%30.30 "Hg10 mi
2:30 PM61 °FSunny.3 mph25%30.30 "Hg10 mi
2:00 PM59 °FSunny.6 mph31%30.30 "Hg10 mi
1:30 PM57 °FPassing clouds.7 mph27%30.30 "HgN/A
1:00 PM57 °FPassing clouds.7 mph31%30.33 "HgN/A
12:30 PM55 °FPassing clouds.7 mph31%30.33 "HgN/A
12:00 PM55 °FSunny.5 mph31%30.33 "Hg10 mi
11:30 AM54 °FSunny.5 mph35%30.33 "Hg10 mi
11:00 AM52 °FPassing clouds.6 mph35%30.33 "HgN/A
10:30 AM50 °FPassing clouds.5 mph37%30.33 "HgN/A
10:00 AM48 °FPassing clouds.5 mph43%30.33 "HgN/A
9:00 AM45 °FPassing clouds.3 mph57%30.33 "HgN/A
8:30 AM43 °FPassing clouds.5 mph57%30.33 "HgN/A
8:00 AM43 °FPassing clouds.5 mph53%30.33 "HgN/A
7:30 AM41 °FPassing clouds.5 mph61%30.33 "HgN/A
10:00 PM
Sat, Apr 30
54 °FPassing clouds.9 mph35%30.24 "HgN/A
9:30 PM55 °FPassing clouds.8 mph31%30.21 "HgN/A
9:00 PM57 °FPassing clouds.9 mph33%30.18 "HgN/A
8:30 PM59 °FPassing clouds.12 mph29%30.18 "HgN/A
8:00 PM63 °FPassing clouds.9 mph24%30.18 "HgN/A
Weather by CustomWeather, © 2016

See weather overviewHow to use our weather pages